Погода в Ростове-на-Дону

Россия / Ростовская область     47°13′19″N   39°43′13″E
темп.,
°C
ветер,
м/с
пор.,
м/с
влажн.,
%
обл.,
%
осадки,
мм/ч
давл.,
гПа
погр.,
м
21 апреля, ср
ср2100:00+10юз71682100 0.0 10091337
03:00+9юз91487100 0.0 10101049
06:00+9зюз7138993 0.0 1012856
09:00+11зюз6107772 0.0 1015834
12:00+15зюз69543 0.0 10171583
15:00+15зюз68492 0.0 10181452
18:00+14зюз48580 0.0 1018651
21:00+11зюз37735 0.0 1020276
22 апреля, чт
чт2200:00+10юз24815 0.0 1021134
03:00+9юз23868 0.0 102186
06:00+8юз12885 0.0 102272
09:00+12юз23705 0.0 1023501
12:00+16юз235191 0.1 10231486
15:00+17зюз3346100 0.1 10221833
18:00+15з345299 0.2 1022480
21:00+12з2567100 0.3 1023150
23 апреля, пт
пт2300:00+11зсз2469100 0.5 1022138
03:00+10юз237656 0.5 102276
06:00+9зюз24840 0.0 1023136
09:00+13зюз34620 0.0 1023589
12:00+16зюз44472 0.0 10221527
15:00+17з55462 0.0 10211541
18:00+16з345679 0.0 1020747
21:00+13зюз2468100 0.0 1020144
24 апреля, сб
сб2400:00+12зюз2574100 0.0 1018189
03:00+11юз2676100 0.3 1018300
06:00+9ююз410765 0.0 1017361
09:00+13зюз69655 0.0 1017871
12:00+14зюз71160100 0.1 10171529
15:00+14з685357 0.3 10171859
18:00+13зюз46525 0.0 1017985
21:00+10зюз5116650 0.1 1019585
25 апреля, вс
вс2500:00+9зсз38638 0.0 1020820
03:00+7зсз376411 0.0 1020374
06:00+6зсз3564100 0.0 1021307
09:00+9сз235399 0.0 1021921
12:00+12сз2340100 0.0 10211656
15:00+13сз2235100 0.0 10191993
18:00+12зсз3244100 0.0 1019804
21:00+10зсз2453100 0.0 1019205